Meridian, MS

7:59 AM CST on November 19, 2019 (GMT -0600)
Key

Weather History for KMEI - September, 2019

Change the Weather History Date:

Friday, September 27, 2019

  Actual Average Record
Temperature  
Mean Temperature 85 °F 71 °F  
Max Temperature 97 °F 84 °F 97 °F (1954)
Min Temperature 73 °F 59 °F 39 °F (1899)
Degree Days  
Heating Degree Days 0 1  
Month to date heating degree days 0 3  
Since 1 July heating degree days 0 3  
Cooling Degree Days 20 7  
Month to date cooling degree days 498 286  
Year to date cooling degree days 2581 1906  
Growing Degree Days 35 (Base 50)    
Moisture  
Dew Point 67 °F    
Average Humidity 64    
Maximum Humidity 90    
Minimum Humidity 33    
Precipitation  
Precipitation 0.00 in 0.12 in 5.51 in (1906)
Month to date precipitation 0.23 3.07  
Year to date precipitation 43.18 42.03  
Sea Level Pressure  
Sea Level Pressure 29.93 in    
Wind  
Wind Speed 3 mph ()    
Max Wind Speed 16 mph    
Max Gust Speed 19 mph    
Visibility 10.0 miles    
Events      
T = Trace of Precipitation, MM = Missing Value Source: Averaged Metar Reports

Daily Weather History Graph

Daily Weather History Graph

Search for Another Location

Airport or City:

Astronomy

Sep. 27, 2019 Rise Set
Actual Time 6:46 AM CDT 6:45 PM CDT
Civil Twilight 6:21 AM CDT 7:09 PM CDT
Nautical Twilight 5:53 AM CDT 7:38 PM CDT
Astronomical Twilight 5:24 AM CDT 8:06 PM CDT
Moon 5:17 AM CDT (9/27) 6:28 PM CDT (9/27)
Length of Visible Light 12h 47m
Length of Day
11h 59m
Waning Crescent, 2% of the Moon is Illuminated
Sep 27
Waning Crescent
Sep 28
New
Oct 5
First Quarter
Oct 13
Full
Oct 21
Last Quarter

Hourly Weather History & Observations

Time (CDT) Temp. Heat Index Dew Point Humidity Pressure Visibility Wind Dir Wind Speed Gust Speed Precip Events Conditions
12:58 AM 75.9 °F - 71.1 °F 85% 29.91 in 10.0 mi Calm Calm - N/A   Mostly Cloudy
1:58 AM 73.9 °F - 70.0 °F 87% 29.91 in 10.0 mi Calm Calm - N/A   Clear
2:58 AM 73.9 °F - 70.0 °F 87% 29.90 in 10.0 mi Calm Calm - N/A   Mostly Cloudy
3:58 AM 73.9 °F - 70.0 °F 87% 29.91 in 10.0 mi Calm Calm - N/A   Mostly Cloudy
4:58 AM 73.0 °F - 70.0 °F 90% 29.93 in 10.0 mi SSW 3.5 mph - N/A   Mostly Cloudy
5:58 AM 73.9 °F - 70.0 °F 87% 29.94 in 10.0 mi Calm Calm - N/A   Mostly Cloudy
6:58 AM 73.0 °F - 69.1 °F 87% 29.96 in 10.0 mi Calm Calm - N/A   Mostly Cloudy
7:58 AM 75.0 °F - 70.0 °F 84% 29.97 in 10.0 mi Calm Calm - N/A   Scattered Clouds
8:58 AM 81.0 °F 84.1 °F 69.1 °F 67% 29.98 in 10.0 mi Calm Calm - N/A   Partly Cloudy
9:58 AM 87.1 °F 89.9 °F 66.9 °F 51% 29.99 in 10.0 mi WSW 5.8 mph - N/A   Scattered Clouds
10:58 AM 91.9 °F 95.4 °F 66.9 °F 44% 29.98 in 10.0 mi West 6.9 mph - N/A   Clear
11:58 AM 93.9 °F 95.6 °F 64.0 °F 37% 29.96 in 10.0 mi SW 8.1 mph - N/A   Clear
12:58 PM 93.9 °F 96.1 °F 64.9 °F 38% 29.95 in 10.0 mi Variable 6.9 mph 18.4 mph N/A   Clear
1:58 PM 93.9 °F 95.6 °F 64.0 °F 37% 29.91 in 10.0 mi South 3.5 mph - N/A   Clear
2:58 PM 97.0 °F 99.3 °F 64.0 °F 34% 29.90 in 10.0 mi SW 13.8 mph - N/A   Clear
3:58 PM 96.1 °F 97.3 °F 63.0 °F 33% 29.88 in 10.0 mi SSW 13.8 mph - N/A   Clear
4:58 PM 93.9 °F 96.1 °F 64.9 °F 38% 29.88 in 10.0 mi South 10.4 mph - N/A   Mostly Cloudy
5:58 PM 91.9 °F 94.1 °F 64.9 °F 41% 29.88 in 10.0 mi SSW 11.5 mph - N/A   Clear
6:58 PM 86.0 °F 88.2 °F 66.0 °F 51% 29.90 in 10.0 mi South 4.6 mph - N/A   Clear
7:58 PM 81.0 °F 83.8 °F 68.0 °F 65% 29.92 in 10.0 mi Calm Calm - N/A   Clear
8:58 PM 77.0 °F - 68.0 °F 74% 29.94 in 10.0 mi SSW 3.5 mph - N/A   Clear
9:58 PM 75.0 °F - 68.0 °F 79% 29.95 in 10.0 mi Calm Calm - N/A   Clear
10:58 PM 73.9 °F - 66.9 °F 79% 29.95 in 10.0 mi SSW 4.6 mph - N/A   Clear
11:58 PM 73.0 °F - 66.0 °F 79% 29.95 in 10.0 mi SSW 4.6 mph - N/A   Clear